Theta_e
327 325 324 323 320 319 320 320 318 320 319 320 321 321 322 320 321 323 320 323 324 322 323 324 322 321 321 320 318 317 315 313
328 325 324 323 323 322 322 321 321 322 322 322 321 320 320 321 322 324 324 323 325 325 324 324 322 321 318 320 319 316 314 312
328 327 326 325 324 322 322 321 321 322 321 321 321 320 320 322 323 325 324 324 324 324 324 324 321 320 320 320 318 316 314 312
329 328 326 326 325 324 323 324 324 324 324 323 322 321 320 321 323 324 321 322 322 322 322 324 321 320 319 320 317 316 314 312
329 328 328 326 325 326 326 326 325 326 327 326 325 323 321 321 323 324 322 317 318 320 322 322 321 320 319 320 318 316 314 313
329 328 328 328 327 326 326 327 327 328 328 327 327 325 323 323 324 325 322 318 321 323 323 322 320 319 319 318 316 315 313 312
329 330 329 328 328 328 327 327 327 327 327 329 328 327 326 323 324 327 326 324 323 323 322 320 319 319 318 317 315 313 313 311
327 329 331 330 330 329 329 329 328 328 328 328 329 329 329 328 326 327 325 324 325 322 322 322 319 319 316 314 314 313 311 310
329 328 329 331 332 332 332 331 331 330 329 330 330 330 330 330 329 328 327 326 324 323 323 323 318 315 314 314 313 310 310 307
327 329 329 330 332 333 334 334 333 332 331 330 329 323 330 330 328 329 328 325 324 322 323 322 320 317 313 315 314 309 307 306
325 327 329 330 331 333 335 335 334 333 332 331 331 331 330 328 327 327 326 323 322 322 322 322 319 315 315 315 309 307 306 306
325 326 327 329 331 333 335 335 334 333 333 332 331 330 329 326 326 327 325 323 322 322 322 320 317 316 314 311 307 306 305 304
326 326 326 327 330 332 333 333 333 333 333 332 330 329 328 328 327 326 326 323 323 322 321 319 316 315 312 308 307 305 303 303
327 329 329 328 329 329 330 331 331 331 331 330 329 328 327 329 326 325 323 323 321 320 319 318 314 309 307 304 303 304 302 301
323 325 327 329 330 330 330 330 330 330 329 329 327 327 324 323 321 319 320 319 318 317 317 314 310 307 305 303 303 302 301 300
325 325 327 329 330 331 329 328 328 326 324 323 324 323 321 320 319 319 318 316 316 314 312 309 305 303 303 303 302 301 300 299
325 328 330 331 329 328 324 321 324 323 323 322 321 320 318 316 316 314 314 313 311 309 306 304 304 303 303 302 300 300 298 298
324 327 328 326 324 323 321 317 319 320 318 317 315 312 312 311 309 307 307 307 305 304 303 303 302 301 299 298 296 295 294 294
322 323 322 320 319 317 316 314 312 311 310 311 310 308 307 305 305 304 303 302 302 302 301 299 299 299 297 296 293 292 291 293
Wind_Speed
16 18 21 22 27 30 29 28 33 18 16 16 15 16 16 17 17 18 22 19 18 19 15 15 20 18 17 17 16 14 9 8
19 22 22 24 25 28 29 30 28 22 19 20 20 17 16 17 18 21 24 22 21 21 19 19 24 17 18 18 19 17 10 9
22 25 26 27 28 29 29 27 24 22 19 18 18 17 17 19 20 19 22 25 19 19 20 20 22 19 21 22 21 18 12 11
24 26 28 28 30 30 29 26 25 23 20 19 18 18 19 20 21 21 28 29 26 22 24 24 23 20 21 23 24 21 14 12
27 28 30 31 31 30 29 26 25 23 22 20 20 20 20 20 20 22 28 30 26 25 30 28 22 20 27 23 23 20 17 15
30 32 32 32 31 33 30 27 26 24 23 23 21 23 20 18 18 21 26 27 28 28 27 29 26 32 27 25 23 22 16 17
29 29 29 30 30 31 31 30 29 27 27 26 27 24 23 20 19 25 24 25 24 23 23 28 32 30 27 25 22 21 25 22
29 30 31 31 32 32 32 30 30 30 31 30 29 27 25 23 23 25 19 19 22 23 24 23 29 28 26 21 25 25 24 24
30 31 31 31 32 32 31 30 29 28 29 30 25 25 28 29 26 23 23 23 24 28 25 23 23 26 27 29 23 27 29 23
27 30 31 30 29 30 31 28 27 27 29 25 28 27 31 28 24 26 28 23 27 25 21 22 27 30 30 21 30 29 24 23
14 25 30 28 27 26 26 26 25 26 27 25 27 27 32 26 25 28 27 24 23 20 19 22 21 21 25 27 29 29 25 20
8 14 19 26 24 23 23 22 23 23 22 25 24 27 24 17 16 20 20 20 18 18 21 20 18 26 30 28 24 23 18 13
6 9 13 17 21 22 21 20 20 19 18 19 19 16 18 19 18 19 19 19 17 16 17 20 23 25 24 21 22 18 12 15
8 10 12 14 16 17 17 16 16 16 15 20 21 20 20 17 15 15 15 15 15 16 17 18 18 19 20 17 12 11 12 14
11 12 13 14 15 16 16 18 19 18 23 23 19 17 14 10 9 10 10 12 13 11 13 14 15 14 13 10 13 14 15 16
13 13 13 14 15 16 15 19 21 20 17 13 12 9 7 7 7 7 7 9 10 10 12 10 10 8 9 13 16 18 18 19
13 14 14 15 15 16 14 13 14 13 12 10 10 8 9 10 9 8 7 6 5 4 5 5 6 11 14 15 17 18 18 17
13 15 15 15 15 15 16 13 12 12 12 14 14 14 13 12 11 10 8 5 1 3 6 8 10 13 14 12 12 17 19 20
16 17 17 17 17 18 18 17 16 16 17 16 15 14 14 12 11 8 4 2 2 4 5 4 5 8 14 18 20 21 22 22
Wind_Direction
172 162 160 159 162 162 164 170 169 174 187 188 202 201 204 205 212 219 218 221 231 232 225 223 228 227 235 228 229 226 209 225
177 174 170 167 172 175 177 178 183 193 196 197 202 209 209 213 216 221 227 229 240 235 233 231 240 233 227 234 237 232 221 226
183 183 183 184 185 184 181 187 194 197 202 206 211 216 219 219 222 224 231 228 226 239 236 229 239 220 230 237 234 233 213 221
187 188 192 191 192 193 195 198 202 202 206 211 216 217 219 220 222 227 236 236 241 253 249 224 238 221 236 237 231 229 211 227
193 194 197 199 199 200 202 204 206 210 211 214 215 218 219 221 222 225 238 240 240 248 254 238 231 227 232 241 233 230 220 230
197 200 200 202 204 206 207 209 211 213 215 215 219 221 224 225 227 226 240 246 244 250 249 239 229 230 241 238 233 228 224 222
202 204 203 205 207 208 212 212 215 217 218 220 219 222 221 224 227 234 247 248 253 251 239 231 235 245 239 236 223 227 227 239
204 202 202 205 207 209 210 214 217 219 219 220 224 224 225 227 223 242 243 252 239 247 248 259 249 249 237 225 220 232 237 243
211 208 206 206 207 208 211 213 216 217 220 220 221 236 233 234 235 233 238 234 242 255 258 262 260 248 219 226 236 236 241 239
214 211 210 208 207 208 211 213 217 217 223 217 220 235 233 235 237 233 233 240 244 260 264 260 250 237 236 256 248 239 245 250
211 215 209 211 209 209 210 213 215 218 223 227 222 224 235 237 238 237 241 250 258 261 265 255 250 234 237 246 241 236 246 258
186 202 212 210 210 208 207 212 212 216 216 223 228 228 239 240 241 243 252 255 258 260 259 248 233 230 235 236 238 248 255 273
157 167 181 195 203 205 206 207 206 206 209 214 223 224 215 218 230 241 250 256 257 251 246 250 244 245 242 243 240 243 274 289
157 157 158 164 173 179 182 181 183 185 188 202 207 212 215 224 234 237 241 245 238 235 240 246 242 231 230 234 243 275 288 290
171 159 155 155 158 158 157 161 164 159 189 202 209 210 215 217 223 229 226 228 226 225 238 241 238 236 234 237 279 286 282 280
193 181 166 157 150 148 171 177 180 187 192 189 186 190 199 209 201 205 219 212 213 225 229 218 215 212 263 280 283 280 281 296
197 193 174 162 156 154 149 163 173 179 174 182 173 178 160 159 164 164 167 191 203 227 205 199 246 274 275 281 282 284 289 283
180 175 167 159 156 148 145 148 150 155 147 141 140 140 144 140 138 138 142 149 167 215 244 260 265 279 288 283 290 287 286 285
162 159 155 148 143 139 133 132 129 129 130 133 133 132 129 132 128 121 117 133 218 256 285 318 351 332 297 293 287 286 290 289